QPF
0.02 0.03 0.03 0.02 0.03 0.05 0.05 0.06 0.06 0.07 0.07 0.06 0.05 0.04 0.05 0.05 0.06 0.07 0.06 0.08 0.08 0.06 0.05 0.05 0.06 0.05 0.05 0.05 0.04 0.04 0.05 0.08 0.09 0.05 0.03 0.02 0.03 0.04 0.04 0.05 0.04 0.03 0.03
0.02 0.02 0.02 0.03 0.03 0.05 0.08 0.08 0.07 0.06 0.06 0.06 0.05 0.05 0.05 0.04 0.05 0.05 0.05 0.05 0.06 0.07 0.08 0.08 0.08 0.06 0.06 0.05 0.05 0.06 0.06 0.08 0.09 0.08 0.05 0.04 0.04 0.05 0.05 0.04 0.03 0.03 0.03
0.01 0.01 0.03 0.05 0.04 0.04 0.05 0.09 0.09 0.06 0.05 0.06 0.07 0.06 0.05 0.05 0.04 0.04 0.05 0.05 0.06 0.08 0.10 0.10 0.09 0.08 0.07 0.06 0.05 0.06 0.05 0.05 0.06 0.07 0.06 0.06 0.06 0.06 0.06 0.06 0.06 0.06 0.05
0.01 0.01 0.02 0.05 0.04 0.03 0.03 0.05 0.08 0.08 0.07 0.07 0.07 0.07 0.06 0.05 0.04 0.05 0.07 0.08 0.08 0.09 0.10 0.10 0.10 0.09 0.09 0.09 0.08 0.07 0.06 0.05 0.06 0.07 0.07 0.09 0.10 0.09 0.08 0.07 0.07 0.06 0.06
0.01 0.01 0.01 0.03 0.02 0.02 0.04 0.05 0.08 0.07 0.06 0.07 0.06 0.06 0.05 0.04 0.04 0.05 0.07 0.08 0.08 0.09 0.07 0.07 0.08 0.09 0.10 0.10 0.09 0.09 0.08 0.08 0.08 0.08 0.09 0.09 0.09 0.08 0.07 0.06 0.06 0.06 0.06
0.01 0.01 0.01 0.02 0.01 0.01 0.02 0.03 0.06 0.08 0.05 0.05 0.04 0.04 0.03 0.02 0.03 0.04 0.05 0.06 0.07 0.06 0.07 0.09 0.11 0.12 0.13 0.15 0.17 0.16 0.14 0.12 0.13 0.13 0.11 0.10 0.09 0.08 0.07 0.08 0.08 0.08 0.08
0.00 0.01 0.01 0.01 0.01 0.01 0.01 0.02 0.03 0.04 0.06 0.07 0.07 0.05 0.04 0.04 0.04 0.05 0.05 0.05 0.05 0.07 0.08 0.11 0.14 0.17 0.17 0.15 0.16 0.17 0.16 0.13 0.10 0.08 0.08 0.07 0.07 0.07 0.08 0.09 0.10 0.09 0.08
0.01 0.01 0.01 0.02 0.02 0.02 0.02 0.02 0.02 0.03 0.03 0.04 0.06 0.07 0.06 0.06 0.07 0.05 0.05 0.04 0.06 0.07 0.08 0.08 0.09 0.10 0.10 0.10 0.09 0.08 0.08 0.08 0.07 0.06 0.05 0.04 0.04 0.05 0.05 0.06 0.07 0.07 0.07
0.01 0.02 0.02 0.02 0.03 0.02 0.02 0.02 0.02 0.02 0.02 0.02 0.02 0.02 0.03 0.04 0.05 0.06 0.05 0.04 0.05 0.05 0.05 0.05 0.05 0.04 0.06 0.06 0.05 0.04 0.04 0.04 0.05 0.05 0.04 0.03 0.03 0.03 0.03 0.04 0.04 0.05 0.05
0.02 0.02 0.02 0.02 0.03 0.03 0.03 0.03 0.02 0.02 0.02 0.03 0.03 0.02 0.02 0.02 0.04 0.07 0.07 0.04 0.05 0.05 0.05 0.05 0.05 0.04 0.04 0.03 0.02 0.03 0.03 0.03 0.03 0.03 0.02 0.02 0.02 0.02 0.03 0.02 0.03 0.03 0.03
0.02 0.02 0.02 0.02 0.02 0.03 0.04 0.03 0.03 0.03 0.03 0.03 0.03 0.03 0.03 0.04 0.06 0.08 0.08 0.05 0.05 0.05 0.04 0.03 0.03 0.03 0.03 0.03 0.03 0.03 0.03 0.03 0.02 0.02 0.02 0.02 0.02 0.02 0.02 0.02 0.02 0.02 0.02
0.02 0.02 0.02 0.02 0.02 0.02 0.02 0.03 0.03 0.03 0.02 0.02 0.02 0.02 0.02 0.03 0.04 0.05 0.05 0.05 0.04 0.03 0.03 0.03 0.03 0.04 0.03 0.03 0.03 0.03 0.03 0.03 0.02 0.03 0.03 0.02 0.02 0.02 0.02 0.01 0.02 0.02 0.02
0.02 0.02 0.02 0.02 0.02 0.02 0.02 0.02 0.02 0.02 0.02 0.02 0.02 0.02 0.02 0.02 0.03 0.03 0.03 0.03 0.03 0.02 0.03 0.04 0.03 0.03 0.03 0.02 0.02 0.02 0.02 0.02 0.02 0.03 0.03 0.03 0.02 0.01 0.01 0.01 0.01 0.01 0.01
0.01 0.01 0.01 0.01 0.01 0.01 0.01 0.01 0.01 0.01 0.01 0.02 0.01 0.01 0.01 0.02 0.01 0.01 0.01 0.01 0.02 0.02 0.03 0.03 0.03 0.03 0.03 0.02 0.02 0.02 0.02 0.02 0.03 0.04 0.05 0.04 0.03 0.02 0.02 0.02 0.02 0.02 0.01
0.01 0.01 0.01 0.01 0.01 0.01 0.01 0.01 0.01 0.01 0.02 0.02 0.02 0.02 0.02 0.02 0.03 0.03 0.02 0.01 0.01 0.02 0.02 0.02 0.02 0.03 0.04 0.03 0.03 0.03 0.03 0.03 0.04 0.04 0.04 0.04 0.04 0.04 0.04 0.04 0.03 0.02 0.01
0.02 0.01 0.01 0.01 0.01 0.01 0.02 0.02 0.03 0.03 0.03 0.03 0.03 0.03 0.02 0.03 0.04 0.03 0.02 0.02 0.02 0.02 0.02 0.01 0.02 0.03 0.04 0.05 0.05 0.04 0.03 0.02 0.02 0.02 0.02 0.03 0.03 0.04 0.03 0.03 0.02 0.02 0.01
0.03 0.02 0.01 0.01 0.01 0.02 0.02 0.03 0.04 0.04 0.04 0.04 0.04 0.04 0.03 0.04 0.03 0.03 0.03 0.03 0.03 0.02 0.02 0.02 0.02 0.02 0.03 0.04 0.04 0.03 0.03 0.02 0.02 0.02 0.02 0.02 0.03 0.03 0.02 0.02 0.01 0.01 0.00
0.03 0.03 0.02 0.02 0.02 0.02 0.02 0.02 0.02 0.02 0.03 0.04 0.04 0.05 0.05 0.05 0.05 0.05 0.05 0.04 0.03 0.02 0.02 0.02 0.02 0.02 0.02 0.02 0.03 0.03 0.03 0.02 0.02 0.01 0.01 0.01 0.01 0.01 0.01 0.01 0.01 0.00 0.00
0.03 0.03 0.03 0.03 0.02 0.02 0.01 0.01 0.01 0.02 0.04 0.04 0.05 0.06 0.06 0.05 0.06 0.06 0.05 0.04 0.04 0.04 0.03 0.02 0.03 0.03 0.02 0.03 0.03 0.03 0.03 0.02 0.02 0.02 0.02 0.02 0.02 0.02 0.01 0.01 0.01 0.00 0.00
0.03 0.04 0.04 0.03 0.03 0.02 0.02 0.02 0.02 0.03 0.04 0.05 0.06 0.05 0.05 0.04 0.04 0.05 0.05 0.05 0.05 0.04 0.04 0.03 0.03 0.03 0.04 0.04 0.04 0.04 0.04 0.04 0.03 0.03 0.03 0.03 0.02 0.02 0.01 0.01 0.01 0.01 0.01
0.02 0.02 0.03 0.03 0.04 0.04 0.03 0.03 0.03 0.03 0.03 0.03 0.04 0.04 0.05 0.04 0.04 0.04 0.05 0.05 0.04 0.03 0.03 0.02 0.02 0.03 0.03 0.04 0.04 0.04 0.04 0.03 0.03 0.03 0.02 0.02 0.02 0.01 0.01 0.01 0.01 0.01 0.01
0.01 0.01 0.01 0.01 0.02 0.03 0.03 0.03 0.03 0.03 0.03 0.03 0.03 0.03 0.05 0.04 0.03 0.03 0.03 0.04 0.04 0.03 0.03 0.03 0.03 0.03 0.02 0.02 0.03 0.03 0.04 0.04 0.03 0.03 0.02 0.02 0.02 0.01 0.01 0.01 0.01 0.01 0.00
0.01 0.01 0.02 0.02 0.02 0.02 0.02 0.02 0.02 0.02 0.02 0.02 0.02 0.02 0.03 0.03 0.03 0.04 0.04 0.03 0.03 0.04 0.04 0.05 0.05 0.04 0.03 0.02 0.02 0.02 0.02 0.02 0.02 0.02 0.02 0.02 0.01 0.01 0.01 0.01 0.01 0.00 0.00
0.01 0.01 0.01 0.02 0.02 0.02 0.02 0.02 0.02 0.02 0.02 0.02 0.02 0.02 0.02 0.02 0.03 0.03 0.03 0.03 0.03 0.03 0.03 0.04 0.04 0.03 0.03 0.02 0.02 0.01 0.01 0.01 0.01 0.01 0.01 0.01 0.01 0.01 0.01 0.00 0.00 0.00 0.00
0.02 0.02 0.02 0.02 0.02 0.02 0.02 0.02 0.02 0.02 0.01 0.01 0.02 0.02 0.02 0.02 0.02 0.02 0.02 0.02 0.03 0.03 0.03 0.03 0.03 0.02 0.02 0.02 0.01 0.01 0.01 0.01 0.01 0.01 0.01 0.01 0.00 0.00 0.00 0.00 0.00 0.00 0.00
0.01 0.01 0.02 0.02 0.02 0.02 0.02 0.01 0.01 0.01 0.01 0.01 0.02 0.02 0.02 0.02 0.02 0.02 0.02 0.03 0.03 0.03 0.03 0.03 0.03 0.03 0.02 0.02 0.01 0.01 0.01 0.00 0.00 0.00 0.00 0.00 0.00 0.00 0.00 0.00 0.00 0.00 0.00
MSLP
1013.99 1014.37 1014.76 1015.12 1015.42 1015.64 1015.79 1015.88 1015.93 1015.99 1016.07 1016.19 1016.36 1016.57 1016.81 1017.06 1017.29 1017.49 1017.66 1017.80 1017.92 1018.04 1018.17 1018.33 1018.53 1018.76 1019.03 1019.33 1019.65 1020.00 1020.37 1020.77 1021.20 1021.65 1022.14 1022.64 1023.15 1023.65 1024.12 1024.56 1024.94 1025.29 1025.60
1013.80 1014.11 1014.43 1014.72 1014.96 1015.14 1015.27 1015.35 1015.42 1015.50 1015.61 1015.76 1015.95 1016.18 1016.41 1016.65 1016.86 1017.05 1017.20 1017.32 1017.44 1017.56 1017.70 1017.87 1018.09 1018.35 1018.64 1018.97 1019.33 1019.73 1020.15 1020.61 1021.12 1021.66 1022.23 1022.84 1023.45 1024.05 1024.61 1025.13 1025.59 1025.98 1026.31
1013.66 1013.93 1014.19 1014.42 1014.60 1014.74 1014.84 1014.92 1015.00 1015.10 1015.23 1015.39 1015.59 1015.81 1016.04 1016.24 1016.43 1016.58 1016.70 1016.80 1016.90 1017.01 1017.16 1017.35 1017.58 1017.86 1018.18 1018.53 1018.92 1019.34 1019.80 1020.31 1020.86 1021.46 1022.12 1022.80 1023.50 1024.19 1024.85 1025.45 1025.97 1026.42 1026.79
1013.53 1013.78 1014.01 1014.19 1014.34 1014.45 1014.53 1014.61 1014.69 1014.80 1014.94 1015.11 1015.30 1015.50 1015.69 1015.86 1016.00 1016.10 1016.18 1016.25 1016.33 1016.43 1016.58 1016.78 1017.03 1017.32 1017.66 1018.03 1018.43 1018.86 1019.34 1019.87 1020.45 1021.09 1021.80 1022.54 1023.31 1024.07 1024.81 1025.48 1026.07 1026.57 1026.97
1013.37 1013.63 1013.85 1014.02 1014.14 1014.24 1014.32 1014.40 1014.49 1014.61 1014.75 1014.92 1015.10 1015.27 1015.41 1015.53 1015.60 1015.65 1015.68 1015.71 1015.77 1015.87 1016.01 1016.22 1016.48 1016.79 1017.14 1017.52 1017.92 1018.36 1018.84 1019.37 1019.96 1020.61 1021.34 1022.12 1022.92 1023.74 1024.52 1025.25 1025.89 1026.44 1026.88
1013.15 1013.44 1013.67 1013.85 1013.98 1014.08 1014.16 1014.26 1014.36 1014.50 1014.65 1014.81 1014.97 1015.11 1015.21 1015.27 1015.29 1015.29 1015.27 1015.26 1015.29 1015.38 1015.53 1015.74 1016.02 1016.34 1016.69 1017.08 1017.48 1017.91 1018.38 1018.90 1019.48 1020.12 1020.84 1021.63 1022.45 1023.28 1024.09 1024.84 1025.52 1026.09 1026.57
1012.86 1013.19 1013.45 1013.65 1013.81 1013.93 1014.04 1014.16 1014.29 1014.45 1014.61 1014.78 1014.93 1015.04 1015.11 1015.13 1015.10 1015.05 1014.99 1014.96 1014.98 1015.05 1015.21 1015.43 1015.71 1016.04 1016.41 1016.79 1017.20 1017.61 1018.06 1018.56 1019.11 1019.73 1020.43 1021.19 1021.99 1022.81 1023.61 1024.37 1025.05 1025.64 1026.13
1012.56 1012.92 1013.21 1013.44 1013.62 1013.77 1013.92 1014.07 1014.23 1014.42 1014.61 1014.79 1014.95 1015.05 1015.11 1015.10 1015.06 1014.98 1014.91 1014.86 1014.87 1014.95 1015.11 1015.35 1015.65 1015.99 1016.36 1016.74 1017.13 1017.54 1017.97 1018.43 1018.95 1019.53 1020.18 1020.90 1021.66 1022.44 1023.21 1023.94 1024.60 1025.18 1025.66
1012.29 1012.68 1012.99 1013.24 1013.44 1013.62 1013.79 1013.97 1014.17 1014.39 1014.61 1014.82 1015.00 1015.13 1015.19 1015.20 1015.15 1015.08 1015.02 1014.98 1015.01 1015.10 1015.27 1015.52 1015.83 1016.18 1016.55 1016.93 1017.32 1017.70 1018.11 1018.54 1019.02 1019.56 1020.16 1020.82 1021.52 1022.24 1022.95 1023.63 1024.24 1024.79 1025.24
1012.13 1012.51 1012.82 1013.07 1013.28 1013.47 1013.66 1013.87 1014.10 1014.35 1014.61 1014.86 1015.07 1015.23 1015.33 1015.37 1015.36 1015.33 1015.29 1015.29 1015.34 1015.46 1015.65 1015.91 1016.23 1016.58 1016.96 1017.33 1017.70 1018.08 1018.46 1018.86 1019.30 1019.79 1020.33 1020.93 1021.56 1022.21 1022.85 1023.45 1024.01 1024.50 1024.92
1012.13 1012.47 1012.76 1012.99 1013.18 1013.36 1013.55 1013.76 1014.01 1014.29 1014.58 1014.87 1015.12 1015.33 1015.49 1015.58 1015.63 1015.66 1015.68 1015.72 1015.81 1015.96 1016.17 1016.45 1016.77 1017.12 1017.49 1017.85 1018.21 1018.57 1018.93 1019.30 1019.71 1020.15 1020.64 1021.17 1021.73 1022.30 1022.86 1023.39 1023.88 1024.31 1024.68
1012.30 1012.59 1012.81 1013.00 1013.15 1013.30 1013.47 1013.67 1013.92 1014.21 1014.52 1014.84 1015.14 1015.41 1015.62 1015.79 1015.90 1015.99 1016.08 1016.18 1016.31 1016.49 1016.73 1017.01 1017.34 1017.68 1018.04 1018.39 1018.73 1019.07 1019.41 1019.75 1020.12 1020.53 1020.96 1021.43 1021.93 1022.43 1022.92 1023.38 1023.80 1024.18 1024.50
1012.62 1012.83 1012.99 1013.10 1013.19 1013.29 1013.42 1013.60 1013.84 1014.12 1014.44 1014.79 1015.12 1015.43 1015.70 1015.93 1016.12 1016.27 1016.42 1016.57 1016.74 1016.96 1017.21 1017.50 1017.81 1018.15 1018.49 1018.82 1019.15 1019.47 1019.78 1020.11 1020.45 1020.82 1021.21 1021.63 1022.06 1022.50 1022.93 1023.34 1023.71 1024.04 1024.33
1013.05 1013.17 1013.24 1013.27 1013.30 1013.34 1013.42 1013.56 1013.77 1014.04 1014.36 1014.71 1015.07 1015.41 1015.72 1016.00 1016.24 1016.45 1016.64 1016.83 1017.04 1017.27 1017.53 1017.82 1018.12 1018.45 1018.77 1019.09 1019.39 1019.69 1019.99 1020.30 1020.61 1020.95 1021.31 1021.68 1022.07 1022.46 1022.84 1023.21 1023.55 1023.86 1024.13
1013.50 1013.53 1013.51 1013.47 1013.43 1013.42 1013.46 1013.56 1013.74 1013.99 1014.29 1014.64 1015.00 1015.36 1015.69 1016.00 1016.26 1016.50 1016.73 1016.94 1017.16 1017.40 1017.66 1017.95 1018.24 1018.55 1018.85 1019.15 1019.45 1019.73 1020.02 1020.31 1020.60 1020.91 1021.24 1021.58 1021.93 1022.29 1022.64 1022.98 1023.31 1023.61 1023.89
1013.89 1013.84 1013.76 1013.66 1013.57 1013.52 1013.52 1013.60 1013.76 1013.99 1014.28 1014.61 1014.97 1015.32 1015.65 1015.96 1016.23 1016.48 1016.70 1016.92 1017.15 1017.38 1017.64 1017.91 1018.19 1018.48 1018.78 1019.07 1019.35 1019.63 1019.90 1020.18 1020.45 1020.74 1021.04 1021.35 1021.68 1022.01 1022.35 1022.68 1023.00 1023.31 1023.61
1014.19 1014.08 1013.94 1013.81 1013.69 1013.62 1013.61 1013.68 1013.83 1014.06 1014.34 1014.65 1014.99 1015.33 1015.64 1015.93 1016.19 1016.42 1016.64 1016.84 1017.05 1017.28 1017.52 1017.78 1018.06 1018.34 1018.63 1018.92 1019.20 1019.48 1019.74 1020.00 1020.26 1020.53 1020.80 1021.09 1021.39 1021.70 1022.02 1022.34 1022.67 1022.99 1023.31
1014.37 1014.22 1014.06 1013.91 1013.79 1013.73 1013.74 1013.82 1013.98 1014.21 1014.48 1014.79 1015.11 1015.42 1015.71 1015.97 1016.20 1016.40 1016.59 1016.77 1016.96 1017.17 1017.40 1017.65 1017.92 1018.21 1018.51 1018.80 1019.09 1019.36 1019.62 1019.87 1020.12 1020.36 1020.61 1020.86 1021.13 1021.42 1021.72 1022.04 1022.37 1022.70 1023.04
1014.46 1014.29 1014.12 1013.98 1013.88 1013.85 1013.89 1014.00 1014.18 1014.43 1014.71 1015.01 1015.32 1015.60 1015.86 1016.09 1016.28 1016.45 1016.60 1016.76 1016.93 1017.12 1017.34 1017.59 1017.87 1018.17 1018.47 1018.77 1019.07 1019.35 1019.60 1019.85 1020.08 1020.29 1020.51 1020.74 1020.98 1021.23 1021.51 1021.81 1022.13 1022.46 1022.80
1014.50 1014.32 1014.16 1014.04 1013.98 1013.99 1014.07 1014.22 1014.43 1014.69 1014.99 1015.29 1015.58 1015.85 1016.08 1016.27 1016.43 1016.57 1016.70 1016.83 1016.98 1017.16 1017.38 1017.63 1017.92 1018.22 1018.54 1018.86 1019.16 1019.45 1019.71 1019.94 1020.15 1020.34 1020.53 1020.72 1020.92 1021.15 1021.39 1021.66 1021.96 1022.28 1022.60
1014.55 1014.38 1014.23 1014.14 1014.10 1014.14 1014.26 1014.44 1014.68 1014.97 1015.27 1015.57 1015.85 1016.10 1016.31 1016.48 1016.62 1016.73 1016.84 1016.95 1017.09 1017.27 1017.49 1017.75 1018.04 1018.36 1018.69 1019.02 1019.33 1019.62 1019.88 1020.10 1020.29 1020.46 1020.62 1020.77 1020.94 1021.12 1021.33 1021.57 1021.83 1022.12 1022.41
1014.65 1014.48 1014.34 1014.26 1014.24 1014.31 1014.44 1014.64 1014.89 1015.18 1015.49 1015.78 1016.06 1016.30 1016.49 1016.65 1016.77 1016.87 1016.96 1017.07 1017.21 1017.38 1017.60 1017.87 1018.16 1018.49 1018.83 1019.17 1019.49 1019.78 1020.03 1020.24 1020.42 1020.57 1020.70 1020.82 1020.95 1021.10 1021.27 1021.47 1021.69 1021.94 1022.20
1014.80 1014.62 1014.48 1014.40 1014.38 1014.44 1014.57 1014.76 1015.01 1015.28 1015.57 1015.86 1016.12 1016.35 1016.54 1016.69 1016.80 1016.90 1017.00 1017.10 1017.24 1017.41 1017.64 1017.90 1018.20 1018.53 1018.87 1019.20 1019.52 1019.80 1020.05 1020.25 1020.42 1020.56 1020.67 1020.77 1020.87 1020.99 1021.13 1021.30 1021.49 1021.70 1021.92
1014.96 1014.78 1014.62 1014.52 1014.47 1014.50 1014.60 1014.76 1014.97 1015.22 1015.48 1015.75 1015.99 1016.21 1016.39 1016.54 1016.66 1016.76 1016.86 1016.97 1017.11 1017.29 1017.50 1017.76 1018.05 1018.37 1018.70 1019.03 1019.34 1019.62 1019.86 1020.06 1020.22 1020.35 1020.45 1020.55 1020.64 1020.75 1020.87 1021.02 1021.18 1021.36 1021.55
1015.09 1014.88 1014.70 1014.56 1014.47 1014.45 1014.49 1014.60 1014.76 1014.96 1015.18 1015.42 1015.64 1015.84 1016.02 1016.17 1016.30 1016.41 1016.52 1016.64 1016.78 1016.95 1017.16 1017.40 1017.68 1017.98 1018.29 1018.61 1018.91 1019.18 1019.42 1019.62 1019.79 1019.92 1020.03 1020.14 1020.23 1020.34 1020.46 1020.60 1020.75 1020.92 1021.09
1015.09 1014.86 1014.65 1014.46 1014.32 1014.24 1014.22 1014.26 1014.36 1014.51 1014.68 1014.88 1015.08 1015.27 1015.44 1015.60 1015.73 1015.85 1015.97 1016.09 1016.23 1016.39 1016.59 1016.82 1017.07 1017.36 1017.65 1017.95 1018.24 1018.51 1018.75 1018.96 1019.14 1019.30 1019.43 1019.55 1019.67 1019.79 1019.92 1020.06 1020.21 1020.37 1020.54
Thickness
5760 5756 5753 5752 5750 5749 5747 5746 5745 5744 5743 5744 5744 5743 5743 5742 5741 5739 5739 5738 5737 5736 5735 5733 5731 5730 5730 5730 5729 5727 5724 5720 5710 5705 5702 5698 5694 5691 5686 5683 5680 5676 5671
5760 5756 5753 5751 5749 5748 5747 5745 5744 5743 5742 5742 5742 5742 5741 5740 5739 5738 5737 5737 5734 5733 5732 5730 5728 5727 5725 5724 5723 5722 5718 5715 5708 5699 5693 5689 5685 5682 5678 5675 5672 5669 5664
5761 5756 5752 5750 5748 5746 5745 5744 5743 5742 5741 5741 5740 5739 5739 5738 5737 5736 5735 5733 5732 5730 5729 5727 5725 5723 5720 5719 5717 5715 5713 5710 5705 5697 5689 5684 5678 5674 5670 5666 5662 5658 5655
5760 5755 5751 5748 5747 5746 5744 5743 5742 5740 5739 5738 5738 5737 5736 5735 5734 5732 5731 5729 5727 5726 5725 5723 5722 5720 5717 5715 5712 5708 5706 5702 5697 5692 5685 5678 5671 5666 5662 5658 5652 5648 5645
5758 5754 5750 5747 5745 5743 5741 5740 5739 5738 5737 5736 5734 5733 5732 5731 5730 5728 5726 5724 5722 5720 5719 5718 5716 5714 5711 5709 5707 5703 5699 5695 5690 5685 5679 5672 5665 5660 5656 5652 5646 5640 5635
5755 5752 5749 5746 5743 5740 5738 5737 5735 5733 5732 5731 5729 5728 5727 5725 5722 5720 5719 5719 5717 5715 5712 5711 5709 5706 5703 5699 5696 5694 5691 5688 5684 5678 5673 5667 5660 5656 5651 5646 5640 5635 5629
5753 5750 5747 5744 5740 5738 5736 5734 5731 5729 5727 5725 5723 5722 5720 5717 5714 5712 5711 5711 5710 5709 5706 5704 5703 5699 5696 5692 5687 5683 5680 5677 5675 5672 5667 5662 5656 5650 5645 5639 5634 5630 5624
5750 5747 5744 5740 5737 5734 5731 5729 5726 5724 5722 5720 5718 5716 5714 5710 5707 5705 5704 5704 5702 5700 5698 5696 5694 5690 5687 5684 5680 5675 5671 5667 5664 5661 5659 5655 5650 5643 5638 5633 5627 5619 5613
5747 5744 5741 5737 5734 5730 5726 5724 5722 5719 5717 5715 5712 5710 5707 5703 5699 5698 5697 5696 5694 5691 5689 5686 5684 5680 5676 5673 5671 5665 5661 5655 5651 5649 5646 5642 5637 5633 5628 5624 5618 5613 5607
5744 5740 5737 5733 5729 5726 5722 5719 5716 5714 5711 5709 5705 5703 5700 5696 5692 5690 5689 5690 5686 5683 5680 5676 5672 5670 5666 5663 5662 5658 5653 5647 5643 5638 5633 5629 5625 5621 5617 5615 5611 5608 5603
5739 5735 5732 5728 5724 5721 5717 5713 5710 5708 5705 5702 5698 5695 5692 5688 5684 5681 5680 5682 5680 5677 5673 5669 5664 5658 5655 5653 5652 5649 5645 5640 5634 5630 5624 5620 5615 5611 5606 5603 5601 5599 5595
5733 5729 5725 5722 5719 5716 5710 5706 5703 5700 5697 5694 5691 5688 5685 5680 5676 5673 5670 5670 5669 5667 5663 5659 5653 5647 5644 5642 5639 5635 5631 5628 5625 5620 5615 5610 5606 5601 5596 5592 5588 5585 5581
5725 5721 5717 5714 5711 5708 5704 5700 5696 5693 5691 5688 5685 5682 5677 5673 5668 5663 5660 5658 5656 5655 5651 5645 5640 5635 5632 5630 5626 5623 5621 5619 5616 5611 5606 5601 5596 5591 5586 5581 5576 5572 5568
5716 5712 5709 5705 5702 5699 5697 5695 5691 5688 5686 5683 5679 5675 5671 5667 5662 5657 5653 5649 5645 5642 5638 5631 5627 5624 5622 5618 5614 5612 5612 5610 5607 5602 5597 5591 5586 5581 5577 5573 5570 5565 5561
5706 5703 5701 5698 5695 5690 5686 5683 5682 5679 5677 5674 5672 5669 5665 5660 5653 5648 5647 5643 5639 5635 5629 5624 5620 5616 5613 5610 5607 5604 5601 5598 5595 5592 5587 5582 5578 5574 5569 5564 5560 5557 5554
5696 5693 5692 5690 5686 5682 5678 5672 5665 5664 5661 5659 5658 5656 5653 5647 5641 5637 5633 5630 5626 5622 5620 5617 5613 5610 5606 5603 5600 5596 5593 5590 5586 5582 5578 5574 5570 5566 5561 5556 5552 5549 5545
5685 5683 5682 5680 5677 5673 5670 5666 5660 5652 5648 5646 5644 5641 5639 5633 5629 5625 5621 5617 5614 5611 5611 5609 5605 5602 5599 5596 5592 5589 5585 5581 5576 5572 5568 5565 5561 5557 5552 5547 5543 5540 5536
5674 5672 5670 5669 5666 5664 5660 5657 5654 5649 5643 5637 5630 5627 5624 5620 5617 5613 5609 5606 5603 5601 5603 5601 5597 5593 5590 5587 5584 5580 5576 5570 5566 5563 5559 5555 5551 5547 5543 5539 5536 5531 5528
5664 5662 5660 5657 5655 5652 5650 5647 5643 5639 5634 5628 5622 5615 5610 5607 5603 5600 5598 5600 5599 5596 5594 5592 5589 5586 5582 5578 5574 5569 5566 5562 5558 5554 5550 5545 5542 5538 5535 5531 5527 5519 5517
5652 5649 5647 5646 5643 5640 5637 5635 5632 5627 5623 5618 5613 5608 5602 5599 5597 5592 5590 5591 5591 5588 5585 5583 5580 5577 5573 5569 5564 5560 5557 5553 5549 5545 5542 5538 5534 5530 5526 5522 5519 5515 5511
5641 5638 5634 5633 5631 5628 5625 5623 5619 5615 5611 5607 5603 5599 5593 5593 5590 5587 5584 5582 5581 5579 5576 5574 5571 5567 5564 5559 5556 5552 5549 5545 5541 5538 5534 5530 5526 5522 5518 5515 5511 5508 5504
5629 5627 5624 5621 5618 5615 5613 5610 5608 5604 5601 5597 5593 5587 5581 5583 5583 5580 5577 5574 5572 5569 5567 5564 5562 5559 5557 5553 5549 5545 5541 5537 5533 5530 5526 5522 5517 5514 5510 5507 5504 5501 5497
5617 5615 5612 5610 5607 5601 5601 5599 5596 5593 5590 5587 5584 5580 5575 5574 5574 5572 5569 5566 5563 5561 5558 5555 5553 5550 5547 5543 5539 5535 5532 5529 5525 5522 5517 5514 5510 5506 5503 5500 5496 5493 5491
5606 5604 5602 5599 5595 5592 5590 5587 5585 5582 5579 5576 5574 5571 5568 5565 5564 5562 5560 5558 5555 5552 5549 5546 5543 5541 5537 5533 5530 5526 5523 5519 5516 5512 5508 5506 5502 5499 5496 5493 5490 5487 5484
5596 5594 5591 5588 5585 5583 5581 5578 5575 5572 5569 5567 5565 5562 5560 5558 5556 5554 5552 5550 5547 5544 5541 5538 5535 5532 5529 5525 5522 5518 5514 5509 5506 5504 5500 5497 5495 5492 5489 5487 5484 5481 5478
5586 5583 5581 5578 5576 5574 5572 5570 5567 5564 5562 5560 5558 5556 5554 5553 5550 5548 5545 5543 5540 5537 5534 5532 5528 5525 5521 5517 5514 5510 5506 5501 5497 5494 5492 5490 5488 5486 5483 5481 5478 5476 5473